TimeMDT,TemperatureF,Dew PointF,Humidity,Sea Level PressureIn,VisibilityMPH,Wind Direction,Wind SpeedMPH,Gust SpeedMPH,PrecipitationIn,Events,Conditions,WindDirDegrees,DateUTC
12:53 AM,64.0,41.0,43,29.87,10.0,West,4.6,-,N/A,,Clear,260,2013-06-26 06:53:00
1:53 AM,62.1,41.0,46,29.87,10.0,NW,4.6,-,N/A,,Clear,310,2013-06-26 07:53:00
2:53 AM,63.0,39.0,41,29.86,10.0,West,3.5,-,N/A,,Partly Cloudy,280,2013-06-26 08:53:00
3:53 AM,61.0,39.9,46,29.88,10.0,WNW,5.8,-,N/A,,Clear,290,2013-06-26 09:53:00
4:53 AM,60.1,39.9,47,29.88,10.0,West,4.6,-,N/A,,Clear,270,2013-06-26 10:53:00
5:53 AM,59.0,39.0,48,29.91,10.0,West,3.5,-,N/A,,Clear,270,2013-06-26 11:53:00
6:53 AM,61.0,42.1,50,29.93,10.0,Calm,Calm,-,N/A,,Clear,0,2013-06-26 12:53:00
7:53 AM,68.0,41.0,37,29.94,10.0,NE,3.5,-,N/A,,Clear,40,2013-06-26 13:53:00
8:53 AM,70.0,37.0,30,29.95,10.0,Calm,Calm,-,N/A,,Clear,0,2013-06-26 14:53:00
9:53 AM,73.0,39.0,29,29.98,10.0,Calm,Calm,-,N/A,,Clear,0,2013-06-26 15:53:00
10:53 AM,79.0,42.1,27,29.95,10.0,South,5.8,-,N/A,,Clear,180,2013-06-26 16:53:00
11:53 AM,82.0,39.0,22,29.95,10.0,ESE,5.8,-,N/A,,Clear,120,2013-06-26 17:53:00
12:53 PM,86.0,39.0,19,29.94,10.0,SW,9.2,-,N/A,,Clear,230,2013-06-26 18:53:00
1:53 PM,88.0,39.9,18,29.92,10.0,SSW,11.5,18.4,N/A,,Clear,210,2013-06-26 19:53:00
2:53 PM,90.0,37.0,15,29.89,10.0,SW,9.2,-,N/A,,Clear,220,2013-06-26 20:53:00
3:53 PM,91.9,37.0,15,29.88,10.0,WSW,10.4,-,N/A,,Clear,240,2013-06-26 21:53:00
4:53 PM,91.9,37.9,15,29.87,10.0,SW,9.2,-,N/A,,Clear,220,2013-06-26 22:53:00
5:53 PM,91.0,35.1,14,29.87,10.0,SSW,4.6,-,N/A,,Clear,200,2013-06-26 23:53:00
6:53 PM,91.0,35.1,14,29.86,10.0,Calm,Calm,-,N/A,,Clear,0,2013-06-27 00:53:00
7:53 PM,88.0,37.9,17,29.86,10.0,West,3.5,-,N/A,,Clear,270,2013-06-27 01:53:00
8:53 PM,82.9,42.1,24,29.88,10.0,West,3.5,-,N/A,,Clear,260,2013-06-27 02:53:00
9:53 PM,79.0,36.0,21,29.93,10.0,NW,8.1,-,N/A,,Clear,320,2013-06-27 03:53:00
10:53 PM,80.1,41.0,25,29.94,10.0,North,5.8,-,N/A,,Clear,360,2013-06-27 04:53:00
11:53 PM,75.9,43.0,31,29.96,10.0,North,4.6,-,N/A,,Clear,350,2013-06-27 05:53:00